Location: Shell Point
(30.0571°N, 84.2896°W)
Time: 18:32:10
(UTC-04:00)

Meteor 2-19 Rocket - Visible Passes

Search period start: 20 April 2018 00:00
Search period end: 30 April 2018 00:00
Orbit: 936 x 959 km, 82.5° (Epoch: 19 April)

Date Brightness Start Highest point End Pass type
(mag) Time Alt. Az. Time Alt. Az. Time Alt. Az.
20 Apr 7.7 06:30:37 10° NE 06:34:00 15° ENE 06:37:22 10° ESE visible
20 Apr 7.0 21:33:16 10° WSW 21:37:46 21° WNW 21:42:16 10° NNW visible
21 Apr 7.6 21:52:49 10° W 21:55:02 12° WNW 21:57:16 10° NW visible
22 Apr 4.9 20:20:35 10° SSW 20:26:42 70° W 20:32:49 10° N visible
23 Apr 6.0 20:38:00 10° SSW 20:43:44 41° W 20:49:29 10° N visible
24 Apr 7.8 05:54:39 10° NE 05:57:04 12° ENE 05:59:27 10° E visible
24 Apr 7.0 20:55:57 10° SW 21:00:52 25° WNW 21:05:49 10° NNW visible
25 Apr 7.2 06:09:48 10° NNE 06:14:19 22° ENE 06:18:49 10° SE visible
25 Apr 7.5 21:14:49 10° WSW 21:18:06 15° WNW 21:21:23 10° NW visible
26 Apr 6.3 06:25:58 10° NNE 06:31:29 36° E 06:36:57 10° SE visible
29 Apr 7.3 05:33:25 10° NNE 05:37:24 18° ENE 05:41:22 10° ESE visible
29 Apr 7.5 20:37:11 10° WSW 20:41:11 18° WNW 20:45:11 10° NNW visible
